Change the Weather History Date:

Monday, February 10, 2014

  Actual Average Record
Temperature  
Mean Temperature 20 °F -  
Max Temperature 27 °F 36 °F 60 °F (1990)
Min Temperature 10 °F 16 °F 0 °F (1983)
Degree Days  
Heating Degree Days 46    
Moisture  
Dew Point 7 °F    
Average Humidity 58    
Maximum Humidity 88    
Minimum Humidity 39    
Precipitation  
Precipitation 0.00 in - - ()
Sea Level Pressure  
Sea Level Pressure 30.18 in    
Wind  
Wind Speed 4 mph (NW)    
Max Wind Speed 13 mph    
Max Gust Speed 20 mph    
Visibility 10 miles    
Events      
Averages and records for this station are not official NWS values.
T = Trace of Precipitation, MM = Missing Value Source: NWS Daily Summary

Daily Weather History Graph

Daily Weather History Graph

Search for Another Location

Airport or City:

Trip Planner

Search our weather history database for the weather conditions in past years. The results will help you decide how hot, cold, wet, or windy it might be!

Date:

Astronomy

Feb. 10, 2014 Rise Set
Actual Time 6:57 AM EST 5:25 PM EST
Civil Twilight 6:29 AM EST 5:54 PM EST
Nautical Twilight 5:56 AM EST 6:26 PM EST
Astronomical Twilight 5:24 AM EST 6:58 PM EST
Moon 1:51 PM EST (2/10) 3:49 AM EST (2/10)
Length of Visible Light 11h 24m
Length of Day
10h 28m
Waxing Gibbous, 84% of the Moon is Illuminated
Feb 10
Waxing Gibbous
Feb 14
Full
Feb 22
Last Quarter
Mar 1
New
Mar 8
First Quarter

Hourly Weather History & Observations

Time (EST) Temp. Windchill Dew Point Humidity Pressure Visibility Wind Dir Wind Speed Gust Speed Precip Events Conditions
12:53 AM 16.0 °F - 12.9 °F 88% 30.04 in 6.0 mi Calm Calm - N/A   Clear
1:53 AM 16.0 °F - 12.0 °F 84% 30.05 in 6.0 mi Calm Calm - N/A   Clear
2:53 AM 17.1 °F 11.7 °F 12.0 °F 81% 30.05 in 8.0 mi WNW 3.5 mph - N/A   Clear
3:53 AM 21.0 °F 9.9 °F 12.9 °F 71% 30.06 in 10.0 mi NW 10.4 mph - N/A   Clear
4:53 AM 19.9 °F 10.1 °F 9.0 °F 62% 30.09 in 10.0 mi WNW 8.1 mph 19.6 mph N/A   Clear
5:53 AM 19.0 °F - 8.1 °F 62% 30.13 in 10.0 mi Calm Calm - N/A   Clear
6:53 AM 17.1 °F 8.7 °F 7.0 °F 65% 30.16 in 10.0 mi West 5.8 mph - N/A   Clear
7:53 AM 18.0 °F 12.7 °F 7.0 °F 62% 30.18 in 10.0 mi Variable 3.5 mph - N/A   Clear
8:53 AM 19.0 °F 8.2 °F 7.0 °F 59% 30.21 in 10.0 mi West 9.2 mph - N/A   Clear
9:53 AM 21.0 °F 9.3 °F 7.0 °F 55% 30.20 in 10.0 mi WNW 11.5 mph - N/A   Clear
10:53 AM 24.1 °F 13.7 °F 7.0 °F 48% 30.19 in 10.0 mi NW 10.4 mph - N/A   Clear
11:53 AM 25.0 °F 13.6 °F 7.0 °F 46% 30.17 in 10.0 mi NW 12.7 mph 18.4 mph N/A   Clear
12:53 PM 27.0 °F 19.5 °F 6.1 °F 41% 30.17 in 10.0 mi NNW 6.9 mph - N/A   Clear
1:53 PM 27.0 °F 17.3 °F 7.0 °F 43% 30.15 in 10.0 mi WNW 10.4 mph - N/A   Partly Cloudy
2:53 PM 27.0 °F 19.5 °F 5.0 °F 39% 30.16 in 10.0 mi NW 6.9 mph - N/A   Clear
3:53 PM 27.0 °F 18.0 °F 5.0 °F 39% 30.17 in 10.0 mi NNW 9.2 mph - N/A   Partly Cloudy
4:53 PM 26.1 °F 16.8 °F 3.9 °F 39% 30.19 in 10.0 mi NNW 9.2 mph - N/A   Clear
5:53 PM 24.1 °F 18.2 °F 3.9 °F 42% 30.22 in 10.0 mi NNW 4.6 mph - N/A   Clear
6:53 PM 23.0 °F 17.0 °F 3.0 °F 42% 30.25 in 10.0 mi NW 4.6 mph - N/A   Clear
7:53 PM 19.0 °F - 3.9 °F 52% 30.26 in 10.0 mi Calm Calm - N/A   Clear
8:53 PM 17.1 °F - 3.9 °F 56% 30.28 in 10.0 mi Calm Calm - N/A   Clear
9:53 PM 14.0 °F - 5.0 °F 67% 30.30 in 10.0 mi Calm Calm - N/A   Clear
10:53 PM 12.0 °F - 3.9 °F 70% 30.31 in 10.0 mi Calm Calm - N/A   Clear
11:53 PM 10.0 °F - 3.0 °F 73% 30.32 in 10.0 mi Calm Calm - N/A   Clear